Time,TemperatureF,DewpointF,PressureIn,WindDirection,WindDirectionDegrees,WindSpeedMPH,WindSpeedGustMPH,Humidity,HourlyPrecipIn,Conditions,Clouds,dailyrainin,SoftwareType,DateUTC
2013-04-03 00:00:00,23.1,19.0,29.55,NW,319,1.0,3.0,84,0.00,,,0.02,Wunderground v.1.15,2013-04-03 04:00:00,
2013-04-03 00:05:00,22.9,19.1,29.55,WNW,286,3.0,3.0,85,0.00,,,0.00,Wunderground v.1.15,2013-04-03 04:05:00,
2013-04-03 00:10:00,22.9,18.8,29.55,West,267,5.0,12.0,84,0.00,,,0.00,Wunderground v.1.15,2013-04-03 04:10:00,
2013-04-03 00:15:00,23.0,19.2,29.55,WNW,292,7.0,12.0,85,0.00,,,0.00,Wunderground v.1.15,2013-04-03 04:15:00,
2013-04-03 00:20:00,22.9,19.1,29.55,NW,306,6.0,6.0,85,0.00,,,0.00,Wunderground v.1.15,2013-04-03 04:20:00,
2013-04-03 00:25:00,22.8,19.2,29.55,West,261,5.0,6.0,86,0.00,,,0.00,Wunderground v.1.15,2013-04-03 04:25:00,
2013-04-03 00:35:00,22.8,19.0,29.56,WNW,282,5.0,5.0,85,0.00,,,0.00,Wunderground v.1.15,2013-04-03 04:35:00,
2013-04-03 00:45:00,22.7,18.6,29.56,WNW,284,6.0,6.0,84,0.00,,,0.00,Wunderground v.1.15,2013-04-03 04:45:00,
2013-04-03 00:50:00,22.7,18.3,29.56,West,277,7.0,10.0,83,0.00,,,0.00,Wunderground v.1.15,2013-04-03 04:50:00,
2013-04-03 00:56:00,22.7,18.0,29.56,West,279,9.0,10.0,82,0.00,,,0.00,Wunderground v.1.15,2013-04-03 04:56:00,
2013-04-03 01:05:00,22.5,17.5,29.55,WNW,291,8.0,9.0,81,0.00,,,0.00,Wunderground v.1.15,2013-04-03 05:05:00,
2013-04-03 01:10:00,22.4,17.5,29.55,WNW,284,7.0,9.0,81,0.00,,,0.00,Wunderground v.1.15,2013-04-03 05:10:00,
2013-04-03 01:15:00,22.5,17.0,29.55,West,271,7.0,9.0,79,0.00,,,0.00,Wunderground v.1.15,2013-04-03 05:15:00,
2013-04-03 01:25:00,22.7,16.0,29.55,WNW,300,7.0,10.0,75,0.00,,,0.00,Wunderground v.1.15,2013-04-03 05:25:00,
2013-04-03 01:30:00,22.9,15.2,29.55,NW,316,6.0,7.0,72,0.00,,,0.00,Wunderground v.1.15,2013-04-03 05:30:00,
2013-04-03 01:35:00,22.9,14.6,29.55,NNW,328,6.0,8.0,70,0.00,,,0.00,Wunderground v.1.15,2013-04-03 05:35:00,
2013-04-03 01:40:00,23.1,13.8,29.55,West,275,6.0,6.0,67,0.00,,,0.00,Wunderground v.1.15,2013-04-03 05:40:00,
2013-04-03 01:45:00,23.3,13.3,29.55,West,262,6.0,10.0,65,0.00,,,0.00,Wunderground v.1.15,2013-04-03 05:45:00,
2013-04-03 01:55:00,23.2,12.8,29.55,West,277,6.0,9.0,64,0.00,,,0.00,Wunderground v.1.15,2013-04-03 05:55:00,
2013-04-03 02:00:00,23.2,12.5,29.55,NNE,31,5.0,5.0,63,0.00,,,0.00,Wunderground v.1.15,2013-04-03 06:00:00,
2013-04-03 02:05:00,23.3,11.4,29.55,West,271,7.0,7.0,60,0.00,,,0.00,Wunderground v.1.15,2013-04-03 06:05:00,
2013-04-03 02:10:00,23.3,11.1,29.55,WNW,301,8.0,8.0,59,0.00,,,0.00,Wunderground v.1.15,2013-04-03 06:10:00,
2013-04-03 02:15:00,23.4,10.8,29.55,NW,304,7.0,9.0,58,0.00,,,0.00,Wunderground v.1.15,2013-04-03 06:15:00,
2013-04-03 02:25:00,23.5,10.5,29.55,West,281,8.0,8.0,57,0.00,,,0.00,Wunderground v.1.15,2013-04-03 06:25:00,
2013-04-03 02:30:00,23.6,10.2,29.55,West,279,10.0,10.0,56,0.00,,,0.00,Wunderground v.1.15,2013-04-03 06:30:00,
2013-04-03 02:35:00,23.7,10.3,29.55,West,281,11.0,11.0,56,0.00,,,0.00,Wunderground v.1.15,2013-04-03 06:35:00,
2013-04-03 02:40:00,23.6,10.2,29.55,NW,309,10.0,11.0,56,0.00,,,0.00,Wunderground v.1.15,2013-04-03 06:40:00,
2013-04-03 02:50:00,23.7,10.3,29.55,West,281,10.0,10.0,56,0.00,,,0.00,Wunderground v.1.15,2013-04-03 06:50:00,
2013-04-03 02:55:00,23.7,10.3,29.55,WNW,296,10.0,14.0,56,0.00,,,0.00,Wunderground v.1.15,2013-04-03 06:55:00,
2013-04-03 03:00:00,23.7,10.3,29.55,West,278,9.0,9.0,56,0.00,,,0.00,Wunderground v.1.15,2013-04-03 07:00:00,
2013-04-03 03:05:00,23.8,10.4,29.54,West,273,9.0,11.0,56,0.00,,,0.00,Wunderground v.1.15,2013-04-03 07:05:00,
2013-04-03 03:10:00,23.8,10.4,29.54,West,266,9.0,9.0,56,0.00,,,0.00,Wunderground v.1.15,2013-04-03 07:10:00,
2013-04-03 03:20:00,23.8,10.8,29.54,WNW,295,6.0,6.0,57,0.00,,,0.00,Wunderground v.1.15,2013-04-03 07:20:00,
2013-04-03 03:25:00,23.9,10.9,29.55,West,279,8.0,10.0,57,0.00,,,0.00,Wunderground v.1.15,2013-04-03 07:25:00,
2013-04-03 03:30:00,24.0,11.0,29.54,WNW,286,11.0,11.0,57,0.00,,,0.00,Wunderground v.1.15,2013-04-03 07:30:00,
2013-04-03 03:40:00,23.8,10.8,29.54,WNW,295,7.0,7.0,57,0.00,,,0.00,Wunderground v.1.15,2013-04-03 07:40:00,
2013-04-03 03:45:00,23.8,10.8,29.54,NW,311,8.0,12.0,57,0.00,,,0.00,Wunderground v.1.15,2013-04-03 07:45:00,
2013-04-03 03:50:00,23.8,11.2,29.54,NW,313,9.0,16.0,58,0.00,,,0.00,Wunderground v.1.15,2013-04-03 07:50:00,
2013-04-03 03:55:00,23.8,10.8,29.54,West,259,10.0,16.0,57,0.00,,,0.00,Wunderground v.1.15,2013-04-03 07:55:00,
2013-04-03 04:00:00,23.8,10.4,29.54,West,260,10.0,10.0,56,0.00,,,0.00,Wunderground v.1.15,2013-04-03 08:00:00,
2013-04-03 04:05:00,23.8,10.4,29.54,WNW,300,9.0,10.0,56,0.00,,,0.00,Wunderground v.1.15,2013-04-03 08:05:00,
2013-04-03 04:10:00,23.6,10.2,29.54,West,274,8.0,10.0,56,0.00,,,0.00,Wunderground v.1.15,2013-04-03 08:10:00,
2013-04-03 04:20:00,23.6,9.8,29.54,WNW,298,9.0,9.0,55,0.00,,,0.00,Wunderground v.1.15,2013-04-03 08:20:00,
2013-04-03 04:25:00,23.6,9.8,29.55,NNE,17,8.0,9.0,55,0.00,,,0.00,Wunderground v.1.15,2013-04-03 08:25:00,
2013-04-03 04:30:00,23.7,9.9,29.54,West,271,10.0,10.0,55,0.00,,,0.00,Wunderground v.1.15,2013-04-03 08:30:00,
2013-04-03 04:40:00,23.4,10.0,29.55,West,281,7.0,8.0,56,0.00,,,0.00,Wunderground v.1.15,2013-04-03 08:40:00,
2013-04-03 04:45:00,23.4,10.0,29.54,WNW,286,8.0,12.0,56,0.00,,,0.00,Wunderground v.1.15,2013-04-03 08:45:00,
2013-04-03 04:50:00,23.4,10.0,29.55,West,281,10.0,12.0,56,0.00,,,0.00,Wunderground v.1.15,2013-04-03 08:50:00,
2013-04-03 04:55:00,23.3,10.3,29.55,West,276,9.0,12.0,57,0.00,,,0.00,Wunderground v.1.15,2013-04-03 08:55:00,
2013-04-03 05:05:00,23.2,11.0,29.55,West,276,7.0,12.0,59,0.00,,,0.00,Wunderground v.1.15,2013-04-03 09:05:00,
2013-04-03 05:10:00,23.1,10.9,29.55,WNW,290,7.0,8.0,59,0.00,,,0.00,Wunderground v.1.15,2013-04-03 09:10:00,
2013-04-03 05:20:00,22.9,11.4,29.55,West,277,8.0,8.0,61,0.00,,,0.00,Wunderground v.1.15,2013-04-03 09:20:00,
2013-04-03 05:30:00,22.5,11.4,29.55,WNW,284,7.0,13.0,62,0.00,,,0.00,Wunderground v.1.15,2013-04-03 09:30:00,
2013-04-03 05:35:00,22.6,11.5,29.56,WSW,251,7.0,13.0,62,0.00,,,0.00,Wunderground v.1.15,2013-04-03 09:35:00,
2013-04-03 05:40:00,22.5,11.8,29.56,WSW,257,5.0,6.0,63,0.00,,,0.00,Wunderground v.1.15,2013-04-03 09:40:00,
2013-04-03 05:45:00,22.4,11.7,29.56,West,281,7.0,7.0,63,0.00,,,0.00,Wunderground v.1.15,2013-04-03 09:45:00,
2013-04-03 05:55:00,22.2,11.9,29.56,WNW,284,7.0,11.0,64,0.00,,,0.00,Wunderground v.1.15,2013-04-03 09:55:00,
2013-04-03 06:00:00,22.2,12.2,29.57,WNW,288,7.0,8.0,65,0.00,,,0.00,Wunderground v.1.15,2013-04-03 10:00:00,
2013-04-03 06:10:00,22.1,12.1,29.57,NW,306,7.0,7.0,65,0.00,,,0.00,Wunderground v.1.15,2013-04-03 10:10:00,
2013-04-03 06:15:00,22.1,12.5,29.57,West,266,6.0,7.0,66,0.00,,,0.00,Wunderground v.1.15,2013-04-03 10:15:00,
2013-04-03 06:20:00,22.1,12.1,29.57,SW,229,5.0,5.0,65,0.00,,,0.00,Wunderground v.1.15,2013-04-03 10:20:00,
2013-04-03 06:25:00,22.1,12.1,29.58,WSW,249,4.0,5.0,65,0.00,,,0.00,Wunderground v.1.15,2013-04-03 10:25:00,
2013-04-03 06:35:00,22.2,12.2,29.58,West,268,6.0,6.0,65,0.00,,,0.00,Wunderground v.1.15,2013-04-03 10:35:00,
2013-04-03 06:40:00,22.2,12.2,29.58,WNW,284,6.0,7.0,65,0.00,,,0.00,Wunderground v.1.15,2013-04-03 10:40:00,
2013-04-03 06:45:00,22.2,12.2,29.58,West,277,6.0,7.0,65,0.00,,,0.00,Wunderground v.1.15,2013-04-03 10:45:00,
2013-04-03 06:50:00,22.1,12.1,29.58,WSW,255,5.0,10.0,65,0.00,,,0.00,Wunderground v.1.15,2013-04-03 10:50:00,
2013-04-03 07:00:00,22.3,12.3,29.59,WSW,256,7.0,7.0,65,0.00,,,0.00,Wunderground v.1.15,2013-04-03 11:00:00,
2013-04-03 07:05:00,22.4,12.1,29.59,NW,310,6.0,7.0,64,0.00,,,0.00,Wunderground v.1.15,2013-04-03 11:05:00,
2013-04-03 07:15:00,22.7,12.3,29.59,WNW,286,9.0,12.0,64,0.00,,,0.00,Wunderground v.1.15,2013-04-03 11:15:00,
2013-04-03 07:20:00,22.8,12.4,29.59,West,281,9.0,9.0,64,0.00,,,0.00,Wunderground v.1.15,2013-04-03 11:20:00,
2013-04-03 07:30:00,22.8,12.1,29.60,NW,322,9.0,9.0,63,0.00,,,0.00,Wunderground v.1.15,2013-04-03 11:30:00,
2013-04-03 07:40:00,22.9,11.4,29.60,WNW,284,8.0,10.0,61,0.00,,,0.00,Wunderground v.1.15,2013-04-03 11:40:00,
2013-04-03 07:45:00,23.0,11.9,29.60,WNW,288,8.0,10.0,62,0.00,,,0.00,Wunderground v.1.15,2013-04-03 11:45:00,
2013-04-03 07:51:00,23.1,11.3,29.60,WNW,286,8.0,8.0,60,0.00,,,0.00,Wunderground v.1.15,2013-04-03 11:51:00,
2013-04-03 08:00:00,23.4,11.5,29.61,West,281,7.0,7.0,60,0.00,,,0.00,Wunderground v.1.15,2013-04-03 12:00:00,
2013-04-03 08:05:00,23.5,11.3,29.61,WSW,244,6.0,7.0,59,0.00,,,0.00,Wunderground v.1.15,2013-04-03 12:05:00,
2013-04-03 08:15:00,23.4,10.4,29.61,West,262,10.0,11.0,57,0.00,,,0.00,Wunderground v.1.15,2013-04-03 12:15:00,
2013-04-03 08:20:00,23.6,10.6,29.61,West,267,12.0,12.0,57,0.00,,,0.00,Wunderground v.1.15,2013-04-03 12:20:00,
2013-04-03 08:30:00,23.8,9.6,29.61,WNW,292,11.0,11.0,54,0.00,,,0.00,Wunderground v.1.15,2013-04-03 12:30:00,
2013-04-03 08:35:00,24.0,9.7,29.61,West,265,11.0,11.0,54,0.00,,,0.00,Wunderground v.1.15,2013-04-03 12:35:00,
2013-04-03 08:45:00,23.6,8.9,29.60,WNW,288,12.0,13.0,53,0.00,,,0.00,Wunderground v.1.15,2013-04-03 12:45:00,
2013-04-03 08:50:00,24.0,9.7,29.61,NW,323,14.0,16.0,54,0.00,,,0.00,Wunderground v.1.15,2013-04-03 12:50:00,
2013-04-03 08:55:00,23.9,8.8,29.60,West,263,13.0,17.0,52,0.00,,,0.00,Wunderground v.1.15,2013-04-03 12:55:00,
2013-04-03 09:05:00,24.6,8.1,29.60,WNW,288,13.0,21.0,49,0.00,,,0.00,Wunderground v.1.15,2013-04-03 13:05:00,
2013-04-03 09:15:00,24.9,8.9,29.60,WNW,300,12.0,13.0,50,0.00,,,0.00,Wunderground v.1.15,2013-04-03 13:15:00,
2013-04-03 09:20:00,25.2,8.7,29.60,West,278,10.0,17.0,49,0.00,,,0.00,Wunderground v.1.15,2013-04-03 13:20:00,
2013-04-03 09:25:00,25.1,8.6,29.61,WNW,298,11.0,17.0,49,0.00,,,0.00,Wunderground v.1.15,2013-04-03 13:25:00,
2013-04-03 09:30:00,25.4,8.9,29.61,West,261,11.0,11.0,49,0.00,,,0.00,Wunderground v.1.15,2013-04-03 13:30:00,
2013-04-03 09:45:00,25.3,7.9,29.61,NNW,333,12.0,12.0,47,0.00,,,0.00,Wunderground v.1.15,2013-04-03 13:45:00,
2013-04-03 09:50:00,25.4,7.9,29.60,NW,320,11.0,12.0,47,0.00,,,0.00,Wunderground v.1.15,2013-04-03 13:50:00,
2013-04-03 09:55:00,25.3,7.4,29.61,NW,318,13.0,13.0,46,0.00,,,0.00,Wunderground v.1.15,2013-04-03 13:55:00,
2013-04-03 10:00:00,25.6,9.1,29.61,WNW,299,13.0,20.0,49,0.00,,,0.00,Wunderground v.1.15,2013-04-03 14:00:00,
2013-04-03 10:06:00,26.0,9.0,29.61,West,259,12.0,20.0,48,0.00,,,0.00,Wunderground v.1.15,2013-04-03 14:06:00,
2013-04-03 10:15:00,26.2,8.7,29.61,WNW,302,13.0,15.0,47,0.00,,,0.00,Wunderground v.1.15,2013-04-03 14:15:00,
2013-04-03 10:20:00,26.5,9.0,29.61,NW,311,10.0,12.0,47,0.00,,,0.00,Wunderground v.1.15,2013-04-03 14:20:00,
2013-04-03 10:25:00,26.5,8.5,29.61,West,278,11.0,19.0,46,0.00,,,0.00,Wunderground v.1.15,2013-04-03 14:25:00,
2013-04-03 10:40:00,26.9,8.4,29.62,WNW,302,10.0,10.0,45,0.00,,,0.00,Wunderground v.1.15,2013-04-03 14:40:00,
2013-04-03 10:45:00,27.0,8.5,29.61,WNW,296,10.0,24.0,45,0.00,,,0.00,Wunderground v.1.15,2013-04-03 14:45:00,
2013-04-03 10:50:00,26.9,8.4,29.61,WSW,249,13.0,13.0,45,0.00,,,0.00,Wunderground v.1.15,2013-04-03 14:50:00,
2013-04-03 10:55:00,27.3,9.7,29.61,WNW,302,12.0,13.0,47,0.00,,,0.00,Wunderground v.1.15,2013-04-03 14:55:00,
2013-04-03 11:05:00,27.6,8.5,29.62,West,261,12.0,12.0,44,0.00,,,0.00,Wunderground v.1.15,2013-04-03 15:05:00,
2013-04-03 11:10:00,27.6,8.5,29.61,West,267,13.0,27.0,44,0.00,,,0.00,Wunderground v.1.15,2013-04-03 15:10:00,
2013-04-03 11:15:00,27.4,7.8,29.62,NW,325,14.0,14.0,43,0.00,,,0.00,Wunderground v.1.15,2013-04-03 15:15:00,
2013-04-03 11:20:00,28.0,9.4,29.62,NW,320,12.0,14.0,45,0.00,,,0.00,Wunderground v.1.15,2013-04-03 15:20:00,
2013-04-03 11:25:00,28.2,8.5,29.61,West,262,11.0,15.0,43,0.00,,,0.00,Wunderground v.1.15,2013-04-03 15:25:00,
2013-04-03 11:35:00,28.6,9.9,29.62,WNW,293,13.0,17.0,45,0.00,,,0.00,Wunderground v.1.15,2013-04-03 15:35:00,
2013-04-03 11:40:00,28.6,7.8,29.62,NW,306,15.0,17.0,41,0.00,,,0.00,Wunderground v.1.15,2013-04-03 15:40:00,
2013-04-03 11:45:00,28.8,8.6,29.62,WNW,282,16.0,16.0,42,0.00,,,0.00,Wunderground v.1.15,2013-04-03 15:45:00,
2013-04-03 11:50:00,28.8,7.5,29.61,NW,315,14.0,19.0,40,0.00,,,0.00,Wunderground v.1.15,2013-04-03 15:50:00,
2013-04-03 12:01:00,29.2,8.4,29.62,WNW,288,14.0,14.0,41,0.00,,,0.00,Wunderground v.1.15,2013-04-03 16:01:00,
2013-04-03 12:10:00,30.0,10.2,29.62,WNW,303,11.0,11.0,43,0.00,,,0.00,Wunderground v.1.15,2013-04-03 16:10:00,
2013-04-03 12:16:00,30.3,9.4,29.62,NW,311,10.0,14.0,41,0.00,,,0.00,Wunderground v.1.15,2013-04-03 16:16:00,
2013-04-03 12:25:00,30.6,9.1,29.62,WSW,256,10.0,16.0,40,0.00,,,0.00,Wunderground v.1.15,2013-04-03 16:25:00,
2013-04-03 12:30:00,30.6,9.1,29.62,WNW,302,12.0,13.0,40,0.00,,,0.00,Wunderground v.1.15,2013-04-03 16:30:00,
2013-04-03 12:35:00,30.8,9.3,29.62,NW,316,12.0,13.0,40,0.00,,,0.00,Wunderground v.1.15,2013-04-03 16:35:00,
2013-04-03 12:41:00,31.2,9.6,29.62,NW,309,9.0,10.0,40,0.00,,,0.00,Wunderground v.1.15,2013-04-03 16:41:00,
2013-04-03 12:50:00,31.3,8.0,29.61,WNW,288,10.0,13.0,37,0.00,,,0.00,Wunderground v.1.15,2013-04-03 16:50:00,
2013-04-03 13:00:00,31.4,8.7,29.61,WNW,299,14.0,21.0,38,0.00,,,0.00,Wunderground v.1.15,2013-04-03 17:00:00,
2013-04-03 13:10:00,32.1,10.5,29.62,West,278,12.0,12.0,40,0.00,,,0.00,Wunderground v.1.15,2013-04-03 17:10:00,
2013-04-03 13:15:00,32.3,9.5,29.62,West,269,11.0,12.0,38,0.00,,,0.00,Wunderground v.1.15,2013-04-03 17:15:00,
2013-04-03 13:25:00,33.0,11.8,29.62,NNW,327,10.0,12.0,41,0.00,,,0.00,Wunderground v.1.15,2013-04-03 17:25:00,
2013-04-03 13:35:00,33.2,9.1,29.62,WNW,289,9.0,13.0,36,0.00,,,0.00,Wunderground v.1.15,2013-04-03 17:35:00,
2013-04-03 13:40:00,33.2,10.3,29.62,NW,317,10.0,16.0,38,0.00,,,0.00,Wunderground v.1.15,2013-04-03 17:40:00,
2013-04-03 13:45:00,33.0,8.9,29.61,WNW,302,12.0,16.0,36,0.00,,,0.00,Wunderground v.1.15,2013-04-03 17:45:00,
2013-04-03 13:50:00,33.1,11.4,29.62,WNW,291,14.0,14.0,40,0.00,,,0.00,Wunderground v.1.15,2013-04-03 17:50:00,
2013-04-03 14:00:00,33.5,10.0,29.62,WNW,291,14.0,18.0,37,0.00,,,0.00,Wunderground v.1.15,2013-04-03 18:00:00,
2013-04-03 14:10:00,33.9,10.3,29.62,NW,318,12.0,17.0,37,0.00,,,0.00,Wunderground v.1.15,2013-04-03 18:10:00,
2013-04-03 14:15:00,33.6,11.2,29.62,West,264,14.0,20.0,39,0.00,,,0.00,Wunderground v.1.15,2013-04-03 18:15:00,
2013-04-03 14:20:00,33.5,8.7,29.62,West,281,16.0,16.0,35,0.00,,,0.00,Wunderground v.1.15,2013-04-03 18:20:00,
2013-04-03 14:30:00,34.7,11.6,29.62,WNW,302,9.0,22.0,38,0.00,,,0.00,Wunderground v.1.15,2013-04-03 18:30:00,
2013-04-03 14:40:00,34.0,8.5,29.62,WNW,290,16.0,16.0,34,0.00,,,0.00,Wunderground v.1.15,2013-04-03 18:40:00,
2013-04-03 14:45:00,34.2,9.4,29.63,WNW,290,14.0,16.0,35,0.00,,,0.00,Wunderground v.1.15,2013-04-03 18:45:00,
2013-04-03 14:55:00,34.1,8.0,29.62,NW,304,14.0,14.0,33,0.00,,,0.00,Wunderground v.1.15,2013-04-03 18:55:00,
2013-04-03 15:00:00,34.2,9.4,29.62,West,281,15.0,18.0,35,0.00,,,0.00,Wunderground v.1.15,2013-04-03 19:00:00,
2013-04-03 15:05:00,34.6,11.0,29.63,SW,220,12.0,18.0,37,0.00,,,0.00,Wunderground v.1.15,2013-04-03 19:05:00,
2013-04-03 15:10:00,34.8,7.2,29.62,WNW,292,10.0,10.0,31,0.00,,,0.00,Wunderground v.1.15,2013-04-03 19:10:00,
2013-04-03 15:15:00,34.9,9.3,29.63,NW,313,11.0,17.0,34,0.00,,,0.00,Wunderground v.1.15,2013-04-03 19:15:00,
2013-04-03 15:25:00,34.7,9.1,29.62,NNW,338,14.0,14.0,34,0.00,,,0.00,Wunderground v.1.15,2013-04-03 19:25:00,
2013-04-03 15:30:00,35.3,10.3,29.63,NW,312,12.0,12.0,35,0.00,,,0.00,Wunderground v.1.15,2013-04-03 19:30:00,
2013-04-03 15:35:00,35.4,11.7,29.63,West,279,11.0,17.0,37,0.00,,,0.00,Wunderground v.1.15,2013-04-03 19:35:00,
2013-04-03 15:45:00,35.1,8.2,29.64,NW,309,12.0,25.0,32,0.00,,,0.00,Wunderground v.1.15,2013-04-03 19:45:00,
2013-04-03 16:00:00,34.9,8.7,29.64,WNW,292,14.0,14.0,33,0.00,,,0.00,Wunderground v.1.15,2013-04-03 20:00:00,
2013-04-03 16:10:00,35.0,10.7,29.64,NW,310,14.0,14.0,36,0.00,,,0.00,Wunderground v.1.15,2013-04-03 20:10:00,
2013-04-03 16:16:00,34.7,10.4,29.65,WNW,302,13.0,14.0,36,0.00,,,0.00,Wunderground v.1.15,2013-04-03 20:16:00,
2013-04-03 16:25:00,34.6,11.0,29.64,WNW,301,14.0,14.0,37,0.00,,,0.00,Wunderground v.1.15,2013-04-03 20:25:00,
2013-04-03 16:30:00,34.8,9.9,29.65,West,270,13.0,14.0,35,0.00,,,0.00,Wunderground v.1.15,2013-04-03 20:30:00,
2013-04-03 16:40:00,35.0,9.4,29.65,NW,304,11.0,12.0,34,0.00,,,0.00,Wunderground v.1.15,2013-04-03 20:40:00,
2013-04-03 16:45:00,34.5,10.9,29.65,West,277,11.0,16.0,37,0.00,,,0.00,Wunderground v.1.15,2013-04-03 20:45:00,
2013-04-03 16:55:00,34.3,10.7,29.65,NNW,337,13.0,16.0,37,0.00,,,0.00,Wunderground v.1.15,2013-04-03 20:55:00,
2013-04-03 17:00:00,33.9,10.9,29.66,WNW,297,14.0,14.0,38,0.00,,,0.00,Wunderground v.1.15,2013-04-03 21:00:00,
2013-04-03 17:05:00,33.8,11.4,29.66,WNW,292,14.0,14.0,39,0.00,,,0.00,Wunderground v.1.15,2013-04-03 21:05:00,
2013-04-03 17:15:00,33.6,12.4,29.67,WNW,290,13.0,13.0,41,0.00,,,0.00,Wunderground v.1.15,2013-04-03 21:15:00,
2013-04-03 17:20:00,33.2,11.5,29.66,NW,313,14.0,14.0,40,0.00,,,0.00,Wunderground v.1.15,2013-04-03 21:20:00,
2013-04-03 17:25:00,33.3,12.1,29.67,NW,323,14.0,14.0,41,0.00,,,0.00,Wunderground v.1.15,2013-04-03 21:25:00,
2013-04-03 17:35:00,33.4,11.6,29.67,West,275,10.0,20.0,40,0.00,,,0.00,Wunderground v.1.15,2013-04-03 21:35:00,
2013-04-03 17:40:00,33.2,12.6,29.68,NW,304,12.0,15.0,42,0.00,,,0.00,Wunderground v.1.15,2013-04-03 21:40:00,
2013-04-03 17:45:00,33.2,12.0,29.68,WNW,288,11.0,15.0,41,0.00,,,0.00,Wunderground v.1.15,2013-04-03 21:45:00,
2013-04-03 17:55:00,33.3,12.6,29.69,WNW,298,8.0,8.0,42,0.00,,,0.00,Wunderground v.1.15,2013-04-03 21:55:00,
2013-04-03 18:00:00,33.4,13.8,29.69,NW,309,8.0,12.0,44,0.00,,,0.00,Wunderground v.1.15,2013-04-03 22:00:00,
2013-04-03 18:05:00,32.6,13.1,29.70,NW,308,10.0,12.0,44,0.00,,,0.00,Wunderground v.1.15,2013-04-03 22:05:00,
2013-04-03 18:10:00,32.3,13.3,29.70,NW,306,13.0,19.0,45,0.00,,,0.00,Wunderground v.1.15,2013-04-03 22:10:00,
2013-04-03 18:15:00,32.0,13.5,29.70,NW,307,12.0,19.0,46,0.00,,,0.00,Wunderground v.1.15,2013-04-03 22:15:00,
2013-04-03 18:25:00,31.4,13.5,29.70,NNW,342,10.0,13.0,47,0.00,,,0.00,Wunderground v.1.15,2013-04-03 22:25:00,
2013-04-03 18:30:00,31.2,13.8,29.70,WNW,294,10.0,14.0,48,0.00,,,0.00,Wunderground v.1.15,2013-04-03 22:30:00,
2013-04-03 18:35:00,31.1,14.1,29.71,NW,318,11.0,14.0,49,0.00,,,0.00,Wunderground v.1.15,2013-04-03 22:35:00,
2013-04-03 18:45:00,30.6,13.7,29.71,North,355,10.0,12.0,49,0.00,,,0.00,Wunderground v.1.15,2013-04-03 22:45:00,
2013-04-03 18:51:00,30.5,14.0,29.72,WNW,300,12.0,15.0,50,0.00,,,0.00,Wunderground v.1.15,2013-04-03 22:51:00,
2013-04-03 19:00:00,30.1,14.6,29.73,NW,309,11.0,11.0,52,0.00,,,0.00,Wunderground v.1.15,2013-04-03 23:00:00,
2013-04-03 19:05:00,29.9,14.8,29.72,West,265,10.0,11.0,53,0.00,,,0.00,Wunderground v.1.15,2013-04-03 23:05:00,
2013-04-03 19:10:00,29.9,14.8,29.73,WNW,294,9.0,14.0,53,0.00,,,0.00,Wunderground v.1.15,2013-04-03 23:10:00,
2013-04-03 19:15:00,29.8,15.2,29.73,WNW,288,11.0,14.0,54,0.00,,,0.00,Wunderground v.1.15,2013-04-03 23:15:00,
2013-04-03 19:30:00,29.6,15.4,29.73,NW,306,11.0,11.0,55,0.00,,,0.00,Wunderground v.1.15,2013-04-03 23:30:00,
2013-04-03 19:35:00,29.4,15.2,29.73,WNW,292,10.0,11.0,55,0.00,,,0.00,Wunderground v.1.15,2013-04-03 23:35:00,
2013-04-03 19:45:00,29.4,15.6,29.73,NW,310,10.0,19.0,56,0.00,,,0.00,Wunderground v.1.15,2013-04-03 23:45:00,
2013-04-03 19:50:00,29.3,15.5,29.73,WNW,290,11.0,24.0,56,0.00,,,0.00,Wunderground v.1.15,2013-04-03 23:50:00,
2013-04-03 20:00:00,29.1,16.1,29.74,NW,312,11.0,21.0,58,0.00,,,0.00,Wunderground v.1.15,2013-04-04 00:00:00,
2013-04-03 20:05:00,29.0,16.8,29.74,North,355,11.0,23.0,60,0.00,,,0.00,Wunderground v.1.15,2013-04-04 00:05:00,
2013-04-03 20:15:00,28.9,17.1,29.75,NW,319,14.0,19.0,61,0.00,,,0.00,Wunderground v.1.15,2013-04-04 00:15:00,
2013-04-03 20:25:00,28.7,17.7,29.75,WNW,302,13.0,13.0,63,0.00,,,0.00,Wunderground v.1.15,2013-04-04 00:25:00,
2013-04-03 20:30:00,28.5,18.2,29.76,NW,317,11.0,13.0,65,0.00,,,0.00,Wunderground v.1.15,2013-04-04 00:30:00,
2013-04-03 20:35:00,28.4,18.8,29.76,NW,313,10.0,11.0,67,0.00,,,0.00,Wunderground v.1.15,2013-04-04 00:35:00,
2013-04-03 20:40:00,28.2,19.7,29.76,WNW,302,11.0,13.0,70,0.00,,,0.00,Wunderground v.1.15,2013-04-04 00:40:00,
2013-04-03 20:50:00,27.8,20.3,29.77,NW,317,11.0,13.0,73,0.00,,,0.00,Wunderground v.1.15,2013-04-04 00:50:00,
2013-04-03 20:55:00,27.6,20.7,29.77,NW,319,11.0,11.0,75,0.00,,,0.00,Wunderground v.1.15,2013-04-04 00:55:00,
2013-04-03 21:00:00,27.4,20.8,29.77,WNW,290,12.0,14.0,76,0.00,,,0.00,Wunderground v.1.15,2013-04-04 01:00:00,
2013-04-03 21:05:00,27.5,20.9,29.77,NW,312,12.0,18.0,76,0.00,,,0.00,Wunderground v.1.15,2013-04-04 01:05:00,
2013-04-03 21:15:00,27.5,21.2,29.78,WNW,285,12.0,14.0,77,0.00,,,0.00,Wunderground v.1.15,2013-04-04 01:15:00,
2013-04-03 21:21:00,27.4,21.1,29.79,NW,320,12.0,16.0,77,0.00,,,0.00,Wunderground v.1.15,2013-04-04 01:21:00,
2013-04-03 21:30:00,27.3,21.3,29.78,NW,307,11.0,11.0,78,0.00,,,0.00,Wunderground v.1.15,2013-04-04 01:30:00,
2013-04-03 21:36:00,27.2,21.5,29.78,NW,306,11.0,21.0,79,0.00,,,0.00,Wunderground v.1.15,2013-04-04 01:36:00,
2013-04-03 21:45:00,27.2,21.5,29.79,West,279,11.0,13.0,79,0.00,,,0.00,Wunderground v.1.15,2013-04-04 01:45:00,
2013-04-03 21:51:00,27.1,21.7,29.80,NW,316,10.0,10.0,80,0.00,,,0.00,Wunderground v.1.15,2013-04-04 01:51:00,
2013-04-03 22:00:00,27.0,21.7,29.80,West,278,8.0,8.0,80,0.00,,,0.00,Wunderground v.1.15,2013-04-04 02:00:00,
2013-04-03 22:10:00,27.1,21.5,29.81,WNW,287,7.0,7.0,79,0.00,,,0.00,Wunderground v.1.15,2013-04-04 02:10:00,
2013-04-03 22:20:00,27.4,20.8,29.82,NW,308,6.0,6.0,76,0.00,,,0.00,Wunderground v.1.15,2013-04-04 02:20:00,
2013-04-03 22:30:00,27.7,19.8,29.82,NW,322,7.0,9.0,72,0.00,,,0.00,Wunderground v.1.15,2013-04-04 02:30:00,
2013-04-03 22:35:00,27.9,19.0,29.82,West,276,7.0,9.0,69,0.00,,,0.00,Wunderground v.1.15,2013-04-04 02:35:00,
2013-04-03 22:50:00,28.1,17.8,29.82,NNW,338,6.0,6.0,65,0.00,,,0.00,Wunderground v.1.15,2013-04-04 02:50:00,
2013-04-03 23:00:00,28.0,17.4,29.83,NW,306,6.0,6.0,64,0.00,,,0.00,Wunderground v.1.15,2013-04-04 03:00:00,
2013-04-03 23:05:00,27.9,16.9,29.83,NW,320,7.0,8.0,63,0.00,,,0.00,Wunderground v.1.15,2013-04-04 03:05:00,
2013-04-03 23:15:00,27.9,16.6,29.83,NNW,336,7.0,7.0,62,0.00,,,0.00,Wunderground v.1.15,2013-04-04 03:15:00,
2013-04-03 23:25:00,27.8,16.1,29.83,WNW,296,8.0,8.0,61,0.00,,,0.00,Wunderground v.1.15,2013-04-04 03:25:00,
2013-04-03 23:35:00,27.7,16.0,29.83,NNE,30,6.0,6.0,61,0.00,,,0.00,Wunderground v.1.15,2013-04-04 03:35:00,
2013-04-03 23:45:00,27.6,15.1,29.84,NW,304,9.0,9.0,59,0.00,,,0.00,Wunderground v.1.15,2013-04-04 03:45:00,
2013-04-03 23:55:00,27.6,14.7,29.84,WNW,294,9.0,11.0,58,0.00,,,0.00,Wunderground v.1.15,2013-04-04 03:55:00,